Regional Weather Roundup
Issued by NWS

Home | Current Version | Previous Version | Graphics & Text | Print | Product List | Glossary On
Versions: 1 2 3 4 5 6 7 8 9 10 11 12 13 14 15 16 17 18 19 20 21 22 23 24 25 26 27 28 29 30 31 32 33 34 35 36 37 38 39 40 41 42 43 44 45 46 47 48 49 50
000
ASUS43 KBIS 272010
RWRND

NORTH DAKOTA REGIONAL WEATHER ROUNDUP
NATIONAL WEATHER SERVICE BISMARCK ND
300 PM CDT FRI MAY 27 2016

NOTE: "FAIR" INDICATES FEW OR NO CLOUDS BELOW 12,000 FEET WITH NO
SIGNIFICANT WEATHER AND/OR OBSTRUCTIONS TO VISIBILITY.


NDZ001>003-009>011-017-272100-
NORTHWEST NORTH DAKOTA

CITY           SKY/WX    TMP DP  RH WIND       PRES   REMARKS
WILLISTON      CLOUDY    67  50  54 NE9       29.85S
MINOT          PTSUNNY   68  53  58 NE6       29.81F
MINOT AFB      PTSUNNY   64  54  69 NE12      29.80F
$$

NDZ018>021-031>035-040>046-272100-
SOUTHWEST NORTH DAKOTA

CITY           SKY/WX    TMP DP  RH WIND       PRES   REMARKS
BISMARCK       PTSUNNY   68  47  46 NE8       29.82S
DICKINSON      PTSUNNY   67  42  40 E8        29.82F
GARRISON         N/A     65  51  60 VRB3      29.82F
HETTINGER ARPT CLOUDY    65  45  48 E7        29.85R
$$

NDZ004>008-012>016-024-026-027-054-272100-
NORTHEAST NORTH DAKOTA

CITY           SKY/WX    TMP DP  RH WIND       PRES   REMARKS
GRAND FORKS    PTSUNNY   73  52  47 VRB3      29.77F
GRND FRKS AFB  PTSUNNY   71  50  46 N5        29.78F
DEVILS LAKE    CLOUDY    66  52  60 W7        29.82S
$$

NDZ022-023-025-028>030-036>039-047>053-272100-
SOUTHEAST NORTH DAKOTA

CITY           SKY/WX    TMP DP  RH WIND       PRES   REMARKS
FARGO          CLOUDY    76  57  51 N14       29.73F
JAMESTOWN      PTSUNNY   69  52  54 N7        29.79F
$$




USA.gov is the U.S. government's official web portal to all federal, state and local government web resources and services.